Home > Weather > Sonthofen > Past weeks

Flag for Germany Weather for the Past 2 Weeks in Sonthofen, Bavaria, Germany

Now
40 °F

Chilly.


Feels Like: 37 °F
Forecast: 24 / 39 °F
Wind: 3 mph from South

Location: Bregenz

Current Time: Feb 10, 2016 at 12:49:02 PM

Latest Report: Feb 10, 2016 at 12:00 PM


Visibility: N/A

Pressure: 29.64 "Hg (27.03 "Hg at 748m altitude)

Humidity: 57%

Dew point: 26 °F

Location of SonthofenLocation

Historic Weather in Sonthofen — Graph

°F

Sonthofen Temperature Yesterday

Maximum temperature yesterday: 58 °F (at 2:00 PM)
Minimum temperature yesterday: 42 °F (at 11:00 PM)
Average temperature yesterday: 50 °F

High & Low Weather Summary for the Past Weeks

 TemperatureHumidityPressure
High59 °F (Feb 1, 3:00 PM)100% (Feb 6, 8:00 AM)30.51 "Hg (Feb 6, 8:00 AM)
Low33 °F (Feb 3, 10:00 AM)35% (Feb 7, 7:00 AM)29.26 "Hg (Feb 9, 7:00 PM)
Average45 °F77%30.13 "Hg
* Reported Jan 26 12:00 Noon — Feb 10 11:00 AM, Sonthofen, Weather by CustomWeather, © 2016

Note: Actual official high and low records may vary slightly from our data, if they occured in-between our weather recording intervals... More about our weather records

Advertising

Sonthofen Weather History for the Previous 24 Hours

 ConditionsComfort  
Time TempWeatherWind HumidityBarometerVisibility
11:00 AM
Wed, Feb 10
38 °FChilly.2 mph65%29.64 "HgN/A
10:00 AM38 °FOvercast.2 mph74%29.63 "Hg9 mi
9:00 AM36 °FChilly.2 mph78%29.60 "HgN/A
8:00 AM37 °FChilly.3 mph76%29.57 "HgN/A
7:00 AM37 °FOvercast.3 mph74%29.54 "Hg12 mi
6:00 AM38 °FChilly.2 mph66%29.53 "HgN/A
5:00 AM39 °FChilly.2 mph57%29.50 "HgN/A
4:00 AM37 °FChilly.1 mph77%29.50 "HgN/A
3:00 AM40 °FChilly.5 mph60%29.47 "HgN/A
1:00 AM39 °FChilly.2 mph72%29.50 "HgN/A
12:00 AM41 °FQuite cool.2 mph72%29.47 "HgN/A
11:00 PM
Tue, Feb 9
42 °FQuite cool.2 mph69%29.41 "HgN/A
10:00 PM43 °FQuite cool.7 mph70%29.44 "HgN/A
9:00 PM43 °FQuite cool.5 mph78%29.47 "HgN/A
8:00 PM54 °FCool.2 mph47%29.26 "HgN/A
7:00 PM54 °FCool.2 mph46%29.26 "HgN/A
6:00 PM50 °FCool.2 mph64%29.32 "HgN/A
5:00 PM57 °FRefreshingly cool.5 mph43%29.29 "HgN/A
3:00 PM51 °FCool.2 mph60%29.35 "HgN/A
2:00 PM58 °FRefreshingly cool.8 mph35%29.38 "HgN/A
1:00 PM58 °FOvercast.6 mph38%29.41 "Hg16 mi
12:00 PM54 °FCool.5 mph43%29.50 "HgN/A
Weather by CustomWeather, © 2016

See weather overviewHow to use our weather pages